Time,TemperatureF,DewpointF,PressureIn,WindDirection,WindDirectionDegrees,WindSpeedMPH,WindSpeedGustMPH,Humidity,HourlyPrecipIn,Conditions,Clouds,dailyrainin,SolarRadiationWatts/m^2,SoftwareType,DateUTC
2013-10-03 00:02:00,34.0,31.0,-100.00,WSW,247,2.0,5.0,88,0.00,,,0.00,0.000000,,2013-10-03 07:02:00,
2013-10-03 00:11:00,34.0,31.0,-100.00,WSW,247,2.0,5.0,88,0.00,,,0.00,0.000000,,2013-10-03 07:11:00,
2013-10-03 00:42:00,32.0,30.0,-100.00,WSW,244,3.0,5.0,91,0.00,,,-99.99,0.000000,,2013-10-03 07:42:00,
2013-10-03 00:52:00,32.0,30.0,-100.00,WSW,244,3.0,5.0,91,0.00,,,-99.99,0.000000,,2013-10-03 07:52:00,
2013-10-03 01:03:00,32.0,30.0,-100.00,WSW,244,3.0,5.0,91,0.00,,,-99.99,0.000000,,2013-10-03 08:03:00,
2013-10-03 01:12:00,32.0,30.0,-100.00,WSW,244,3.0,5.0,91,0.00,,,-99.99,0.000000,,2013-10-03 08:12:00,
2013-10-03 01:42:00,31.0,29.0,-100.00,WSW,257,2.0,6.0,92,0.00,,,0.00,0.000000,,2013-10-03 08:42:00,
2013-10-03 01:52:00,31.0,29.0,-100.00,WSW,257,2.0,6.0,92,0.00,,,0.00,0.000000,,2013-10-03 08:52:00,
2013-10-03 02:02:00,31.0,29.0,-100.00,WSW,257,2.0,6.0,92,0.00,,,0.00,0.000000,,2013-10-03 09:02:00,
2013-10-03 02:11:00,31.0,29.0,-100.00,WSW,257,2.0,6.0,92,0.00,,,0.00,0.000000,,2013-10-03 09:11:00,
2013-10-03 02:43:00,29.0,27.0,-100.00,WSW,246,2.0,4.0,94,0.00,,,0.00,0.000000,,2013-10-03 09:43:00,
2013-10-03 02:53:00,29.0,27.0,-100.00,WSW,246,2.0,4.0,94,0.00,,,0.00,0.000000,,2013-10-03 09:53:00,
2013-10-03 03:03:00,29.0,27.0,-100.00,WSW,246,2.0,4.0,94,0.00,,,0.00,0.000000,,2013-10-03 10:03:00,
2013-10-03 03:13:00,29.0,27.0,-100.00,WSW,246,2.0,4.0,94,0.00,,,0.00,0.000000,,2013-10-03 10:13:00,
2013-10-03 03:43:00,27.0,26.0,-100.00,WSW,243,4.0,5.0,95,0.00,,,0.00,0.000000,,2013-10-03 10:43:00,
2013-10-03 03:52:00,27.0,26.0,-100.00,WSW,243,4.0,5.0,95,0.00,,,0.00,0.000000,,2013-10-03 10:52:00,
2013-10-03 04:02:00,27.0,26.0,-100.00,WSW,243,4.0,5.0,95,0.00,,,0.00,0.000000,,2013-10-03 11:02:00,
2013-10-03 04:12:00,27.0,26.0,-100.00,WSW,243,4.0,5.0,95,0.00,,,0.00,0.000000,,2013-10-03 11:12:00,
2013-10-03 04:42:00,27.0,26.0,-100.00,WSW,250,2.0,5.0,95,0.00,,,0.00,0.000000,,2013-10-03 11:42:00,
2013-10-03 04:52:00,27.0,26.0,-100.00,WSW,250,2.0,5.0,95,0.00,,,0.00,0.000000,,2013-10-03 11:52:00,
2013-10-03 05:01:00,27.0,26.0,-100.00,WSW,250,2.0,5.0,95,0.00,,,0.00,0.000000,,2013-10-03 12:01:00,
2013-10-03 05:11:00,27.0,26.0,-100.00,WSW,250,2.0,5.0,95,0.00,,,0.00,0.000000,,2013-10-03 12:11:00,
2013-10-03 05:42:00,28.0,27.0,-100.00,SW,217,2.0,5.0,95,0.00,,,0.00,0.000000,,2013-10-03 12:42:00,
2013-10-03 05:52:00,28.0,27.0,-100.00,SW,217,2.0,5.0,95,0.00,,,0.00,0.000000,,2013-10-03 12:52:00,
2013-10-03 06:01:00,28.0,27.0,-100.00,SW,217,2.0,5.0,95,0.00,,,0.00,0.000000,,2013-10-03 13:01:00,
2013-10-03 06:11:00,28.0,27.0,-100.00,SW,217,2.0,5.0,95,0.00,,,0.00,0.000000,,2013-10-03 13:11:00,
2013-10-03 06:42:00,28.0,25.0,-100.00,WSW,254,3.0,6.0,90,0.00,,,0.00,0.000000,,2013-10-03 13:42:00,
2013-10-03 06:52:00,28.0,25.0,-100.00,WSW,254,3.0,6.0,90,0.00,,,0.00,0.000000,,2013-10-03 13:52:00,
2013-10-03 07:02:00,28.0,25.0,-100.00,WSW,254,3.0,6.0,90,0.00,,,0.00,0.000000,,2013-10-03 14:02:00,
2013-10-03 07:11:00,28.0,25.0,-100.00,WSW,254,3.0,6.0,90,0.00,,,0.00,0.000000,,2013-10-03 14:11:00,
2013-10-03 07:42:00,27.0,24.0,-100.00,WSW,245,4.0,6.0,90,0.00,,,0.00,1.000000,,2013-10-03 14:42:00,
2013-10-03 07:52:00,27.0,24.0,-100.00,WSW,245,4.0,6.0,90,0.00,,,0.00,1.000000,,2013-10-03 14:52:00,
2013-10-03 08:01:00,27.0,24.0,-100.00,WSW,245,4.0,6.0,90,0.00,,,0.00,1.000000,,2013-10-03 15:01:00,
2013-10-03 08:11:00,27.0,24.0,-100.00,WSW,245,4.0,6.0,90,0.00,,,0.00,1.000000,,2013-10-03 15:11:00,
2013-10-03 08:43:00,27.0,24.0,-100.00,WSW,247,4.0,6.0,89,0.00,,,0.00,16.000000,,2013-10-03 15:43:00,
2013-10-03 08:53:00,27.0,24.0,-100.00,WSW,247,4.0,6.0,89,0.00,,,0.00,16.000000,,2013-10-03 15:53:00,
2013-10-03 09:03:00,27.0,24.0,-100.00,WSW,247,4.0,6.0,89,0.00,,,0.00,16.000000,,2013-10-03 16:03:00,
2013-10-03 09:12:00,27.0,24.0,-100.00,WSW,247,4.0,6.0,89,0.00,,,0.00,16.000000,,2013-10-03 16:12:00,
2013-10-03 09:43:00,35.0,28.0,-100.00,SE,144,1.0,5.0,76,0.00,,,0.00,50.000000,,2013-10-03 16:43:00,
2013-10-03 09:53:00,35.0,28.0,-100.00,SE,144,1.0,5.0,76,0.00,,,0.00,50.000000,,2013-10-03 16:53:00,
2013-10-03 10:03:00,35.0,28.0,-100.00,SE,144,1.0,5.0,76,0.00,,,0.00,50.000000,,2013-10-03 17:03:00,
2013-10-03 10:12:00,35.0,28.0,-100.00,SE,144,1.0,5.0,76,0.00,,,0.00,50.000000,,2013-10-03 17:12:00,
2013-10-03 10:42:00,42.0,30.0,-100.00,NE,54,4.0,10.0,62,0.00,,,0.00,398.000000,,2013-10-03 17:42:00,
2013-10-03 10:52:00,42.0,30.0,-100.00,NE,54,4.0,10.0,62,0.00,,,0.00,398.000000,,2013-10-03 17:52:00,
2013-10-03 11:01:00,42.0,30.0,-100.00,NE,54,4.0,10.0,62,0.00,,,0.00,398.000000,,2013-10-03 18:01:00,
2013-10-03 11:12:00,42.0,30.0,-100.00,NE,54,4.0,10.0,62,0.00,,,0.00,398.000000,,2013-10-03 18:12:00,
2013-10-03 11:42:00,44.0,29.0,-100.00,NE,34,4.0,9.0,56,0.00,,,0.00,596.000000,,2013-10-03 18:42:00,
2013-10-03 11:52:00,44.0,29.0,-100.00,NE,34,4.0,9.0,56,0.00,,,0.00,596.000000,,2013-10-03 18:52:00,
2013-10-03 12:01:00,44.0,29.0,-100.00,NE,34,4.0,9.0,56,0.00,,,0.00,596.000000,,2013-10-03 19:01:00,
2013-10-03 12:11:00,44.0,29.0,-100.00,NE,34,4.0,9.0,56,0.00,,,0.00,596.000000,,2013-10-03 19:11:00,
2013-10-03 12:42:00,46.0,30.0,-100.00,North,355,5.0,13.0,53,0.00,,,0.00,696.000000,,2013-10-03 19:42:00,
2013-10-03 12:52:00,46.0,30.0,-100.00,North,355,5.0,13.0,53,0.00,,,0.00,696.000000,,2013-10-03 19:52:00,
2013-10-03 13:02:00,46.0,30.0,-100.00,North,355,5.0,13.0,53,0.00,,,0.00,696.000000,,2013-10-03 20:02:00,
2013-10-03 13:11:00,46.0,30.0,-100.00,North,355,5.0,13.0,53,0.00,,,0.00,696.000000,,2013-10-03 20:11:00,
2013-10-03 13:42:00,49.0,33.0,-100.00,NE,48,6.0,15.0,53,0.00,,,0.00,711.000000,,2013-10-03 20:42:00,
2013-10-03 13:52:00,49.0,33.0,-100.00,NE,48,6.0,15.0,53,0.00,,,0.00,711.000000,,2013-10-03 20:52:00,
2013-10-03 14:02:00,49.0,33.0,-100.00,NE,48,6.0,15.0,53,0.00,,,0.00,711.000000,,2013-10-03 21:02:00,
2013-10-03 14:12:00,49.0,33.0,-100.00,NE,48,6.0,15.0,53,0.00,,,0.00,711.000000,,2013-10-03 21:12:00,
2013-10-03 14:43:00,50.0,31.0,-100.00,NNE,16,6.0,15.0,47,0.00,,,0.00,656.000000,,2013-10-03 21:43:00,
2013-10-03 14:54:00,50.0,31.0,-100.00,NNE,16,6.0,15.0,47,0.00,,,0.00,656.000000,,2013-10-03 21:54:00,
2013-10-03 15:04:00,50.0,31.0,-100.00,NNE,16,6.0,15.0,47,0.00,,,0.00,656.000000,,2013-10-03 22:04:00,
2013-10-03 15:13:00,50.0,31.0,-100.00,NNE,16,6.0,15.0,47,0.00,,,0.00,656.000000,,2013-10-03 22:13:00,
2013-10-03 15:43:00,51.0,30.0,-100.00,North,349,6.0,12.0,44,0.00,,,0.00,616.000000,,2013-10-03 22:43:00,
2013-10-03 15:54:00,51.0,30.0,-100.00,North,349,6.0,12.0,44,0.00,,,0.00,616.000000,,2013-10-03 22:54:00,
2013-10-03 16:03:00,51.0,30.0,-100.00,North,349,6.0,12.0,44,0.00,,,0.00,616.000000,,2013-10-03 23:03:00,
2013-10-03 16:12:00,51.0,30.0,-100.00,North,349,6.0,12.0,44,0.00,,,0.00,616.000000,,2013-10-03 23:12:00,
2013-10-03 16:43:00,51.0,31.0,-100.00,NNE,18,6.0,12.0,47,0.00,,,0.00,533.000000,,2013-10-03 23:43:00,
2013-10-03 16:52:00,51.0,31.0,-100.00,NNE,18,6.0,12.0,47,0.00,,,0.00,533.000000,,2013-10-03 23:52:00,
2013-10-03 17:02:00,51.0,31.0,-100.00,NNE,18,6.0,12.0,47,0.00,,,0.00,533.000000,,2013-10-04 00:02:00,
2013-10-03 17:12:00,51.0,31.0,-100.00,NNE,18,6.0,12.0,47,0.00,,,0.00,533.000000,,2013-10-04 00:12:00,
2013-10-03 17:42:00,50.0,31.0,-100.00,NNE,31,5.0,12.0,48,0.00,,,0.00,340.000000,,2013-10-04 00:42:00,
2013-10-03 17:52:00,50.0,31.0,-100.00,NNE,31,5.0,12.0,48,0.00,,,0.00,340.000000,,2013-10-04 00:52:00,
2013-10-03 18:02:00,50.0,31.0,-100.00,NNE,31,5.0,12.0,48,0.00,,,0.00,340.000000,,2013-10-04 01:02:00,
2013-10-03 18:12:00,50.0,31.0,-100.00,NNE,31,5.0,12.0,48,0.00,,,0.00,340.000000,,2013-10-04 01:12:00,
2013-10-03 18:42:00,47.0,31.0,-100.00,NNE,17,5.0,12.0,54,0.00,,,0.00,168.000000,,2013-10-04 01:42:00,
2013-10-03 18:52:00,47.0,31.0,-100.00,NNE,17,5.0,12.0,54,0.00,,,0.00,168.000000,,2013-10-04 01:52:00,
2013-10-03 19:02:00,47.0,31.0,-100.00,NNE,17,5.0,12.0,54,0.00,,,0.00,168.000000,,2013-10-04 02:02:00,
2013-10-03 19:12:00,47.0,31.0,-100.00,NNE,17,5.0,12.0,54,0.00,,,0.00,168.000000,,2013-10-04 02:12:00,
2013-10-03 19:43:00,39.0,31.0,-100.00,WNW,287,1.0,7.0,73,0.00,,,0.00,13.000000,,2013-10-04 02:43:00,
2013-10-03 19:52:00,39.0,31.0,-100.00,WNW,287,1.0,7.0,73,0.00,,,0.00,13.000000,,2013-10-04 02:52:00,
2013-10-03 20:02:00,39.0,31.0,-100.00,WNW,287,1.0,7.0,73,0.00,,,0.00,13.000000,,2013-10-04 03:02:00,
2013-10-03 20:12:00,39.0,31.0,-100.00,WNW,287,1.0,7.0,73,0.00,,,0.00,13.000000,,2013-10-04 03:12:00,
2013-10-03 20:44:00,36.0,30.0,-100.00,WSW,251,5.0,5.0,78,0.00,,,0.00,0.000000,,2013-10-04 03:44:00,
2013-10-03 21:00:00,36.0,30.0,-100.00,WSW,251,5.0,5.0,78,0.00,,,0.00,0.000000,,2013-10-04 04:00:00,
2013-10-03 21:14:00,34.0,29.0,-100.00,WSW,251,4.0,6.0,81,0.00,,,0.00,0.000000,,2013-10-04 04:14:00,
2013-10-03 21:51:00,34.0,29.0,-100.00,WSW,251,4.0,6.0,81,0.00,,,0.00,0.000000,,2013-10-04 04:51:00,
2013-10-03 22:07:00,34.0,29.0,-100.00,WSW,251,4.0,6.0,81,0.00,,,0.00,0.000000,,2013-10-04 05:07:00,
2013-10-03 22:14:00,32.0,27.0,-100.00,WSW,253,4.0,6.0,83,0.00,,,0.00,0.000000,,2013-10-04 05:14:00,
2013-10-03 22:49:00,32.0,27.0,-100.00,WSW,253,4.0,6.0,83,0.00,,,0.00,0.000000,,2013-10-04 05:49:00,
2013-10-03 22:58:00,32.0,27.0,-100.00,WSW,253,4.0,6.0,83,0.00,,,0.00,0.000000,,2013-10-04 05:58:00,
2013-10-03 23:06:00,32.0,27.0,-100.00,WSW,253,4.0,6.0,83,0.00,,,0.00,0.000000,,2013-10-04 06:06:00,
2013-10-03 23:14:00,31.0,27.0,-100.00,WSW,252,5.0,6.0,85,0.00,,,0.00,0.000000,,2013-10-04 06:14:00,
2013-10-03 23:48:00,31.0,27.0,-100.00,WSW,252,5.0,6.0,85,0.00,,,0.00,0.000000,,2013-10-04 06:48:00,
2013-10-03 23:57:00,31.0,27.0,-100.00,WSW,252,5.0,6.0,85,0.00,,,0.00,0.000000,,2013-10-04 06:57:00,